Torna al catalogo

STARLINK-37882

AttivoComunicazioniVLEO
NORAD 69954·PAYLOAD·🇺🇸 United States

Lanciato Jul 9, 2026 da Cape Canaveral Space Force Station

Loading…

Prossimi Passaggi (prossime 24 ore)

TLE

AggiornatoSource: CelesTrak SupGP

Epoca: Sep 14, 2026, 23:18 UTC

1 69954C 26157M   26257.97131944 -.00003626  00000+0 -10713-3 0  2574
2 69954  53.1601 359.4805 0001201  84.6464 338.3618 15.34390810    18

Traccia STARLINK-37882 in tempo reale con AllMySat

Download on the App Store